Weather observations for the past three days for
Oceanside, Oceanside Municipal Airport
Metric (Imperial)
Date Time (pdt) Wind (kph) Vis. (km) Weather Sky Cond. Temperature (ºC) Relative Humidity Wind Chill (°C) Heat Index (°C) Pressure Precipitation (cm)
Air Dwpt 6 hour altimeter (cm) sea level (mb) 1 hr 3 hr 6 hr
Max. Min.
03 10:52 W 19 G 28 16.09 Overcast OVC041 18.9 11.7 19.4 15 63% 76.1 1014.3
03 09:52 SW 15 16.09 Overcast FEW023 OVC039 18.3 11.7 66% 76.07 1014.2
03 08:52 W 9 16.09 Overcast OVC036 17.2 12.8 76% 76.05 1013.9
03 07:52 W 7 16.09 Overcast FEW019 OVC034 16.1 13.3 84% 76.05 1013.8
03 06:52 W 6 12.87 Overcast OVC027 15.6 13.9 90% 76.02 1013.5
03 05:52 W 7 14.48 Overcast FEW012 SCT017 OVC023 15.6 14.4 93% 75.97 1012.8
03 04:52 W 13 16.09 Overcast FEW016 OVC026 16.1 12.8 17.2 16.1 81% 75.95 1012.5
03 03:52 S 7 14.48 Overcast OVC018 16.1 13.3 84% 75.95 1012.5
03 02:52 SW 9 16.09 Overcast OVC016 16.7 12.8 78% 75.95 1012.4
03 01:52 Calm 16.09 Overcast OVC014 16.7 13.3 80% 75.97 1012.9
03 00:52 SW 6 16.09 Overcast OVC014 16.7 13.3 80% 76.02 1013.3
02 23:52 SW 9 16.09 Overcast OVC014 16.7 13.3 80% 76.02 1013.5
02 22:52 W 7 16.09 Overcast OVC014 16.7 13.9 18.3 16.7 84% 76 1013.2
02 21:52 W 7 16.09 Overcast OVC013 16.7 13.3 80% 75.95 1012.5
02 20:52 W 7 16.09 Overcast OVC012 16.7 13.9 84% 75.9 1011.6
02 19:52 W 7 16.09 Overcast OVC012 16.7 13.9 84% 75.84 1011.2
02 18:52 W 6 16.09 Overcast OVC013 17.2 13.9 81% 75.84 1011.1
02 17:52 SW 13 16.09 Overcast OVC014 17.8 13.9 78% 75.82 1010.9
02 16:52 W 19 14.48 Overcast OVC014 18.3 13.9 21.7 18.3 76% 75.84 1011.1
02 15:52 W 15 16.09 Overcast OVC013 18.9 14.4 75% 75.87 1011.3
02 14:52 W 24 16.09 Overcast OVC014 20 14.4 70% 75.92 1012.2
02 13:52 W 19 16.09 Overcast OVC014 20 14.4 70% 75.95 1012.5
02 12:52 NW 17 16.09 Overcast BKN016 OVC021 19.4 14.4 73% 76 1013.0
02 11:52 W 17 16.09 Overcast OVC018 20.6 14.4 68% 76.05 1013.7
02 10:52 W 7 16.09 Overcast OVC017 18.9 13.9 18.9 16.1 73% 76.07 1014.1
02 09:52 N 6 16.09 Overcast OVC015 17.8 13.9 78% 76.1 1014.6
02 08:52 Calm 14.48 Overcast OVC014 17.8 14.4 81% 76.1 1014.6
02 07:52 Calm 11.27 Overcast OVC014 16.7 14.4 86% 76.1 1014.5
02 06:52 N 7 11.27 Overcast OVC015 16.7 14.4 86% 76.05 1013.9
02 05:52 Calm 12.87 Overcast OVC014 16.7 13.9 84% 76.05 1013.7
02 04:52 Calm 14.48 Overcast OVC013 16.7 13.9 17.8 16.7 84% 76 1013.2
02 03:52 N 6 14.48 Overcast OVC013 16.7 13.9 84% 76 1013.1
02 02:52 N 7 14.48 Overcast OVC013 16.7 13.9 84% 75.97 1012.9
02 01:52 E 7 14.48 Overcast OVC013 17.2 13.9 81% 76 1013.0
02 00:52 Calm 14.48 Overcast OVC014 17.2 13.9 81% 76.05 1013.7
01 23:52 NW 6 14.48 Overcast OVC014 17.2 14.4 84% 76.05 1013.8
01 22:52 Calm 14.48 Overcast OVC015 17.8 13.9 20.6 17.2 78% 76.05 1013.8
01 21:52 Calm 16.09 Overcast OVC015 17.2 13.9 81% 76.05 1013.8
01 20:52 S 6 16.09 Overcast OVC015 17.2 13.9 81% 76.02 1013.3
01 19:52 W 11 16.09 Partly Cloudy SCT015 17.2 13.9 81% 75.97 1012.8
01 18:52 W 15 12.87 A Few Clouds FEW018 18.3 13.9 76% 75.95 1012.3
01 17:52 W 19 14.48 Fair CLR 19.4 13.3 68% 75.9 1011.9
01 16:52 W 22 14.48 Fair CLR 20 13.3 21.7 19.4 65% 75.9 1011.8
01 15:52 SW 19 14.48 Fair CLR 21.1 12.8 59% 75.92 1012.1
01 14:52 W 17 14.48 Fair CLR 21.1 13.3 61% 75.95 1012.6
01 12:52 W 17 12.87 Fair CLR 20.6 12.8 61% 76.02 1013.4
01 11:52 W 15 14.48 A Few Clouds FEW025 21.1 12.8 59% 76.07 1014.0
01 10:52 SW 6 14.48 Overcast OVC023 19.4 12.2 19.4 15 63% 76.1 1014.6
01 09:52 Calm 14.48 Overcast OVC022 17.8 12.2 70% 76.12 1014.9
01 08:52 Calm 14.48 Overcast OVC020 17.2 12.2 73% 76.12 1014.7
01 07:52 Calm 14.48 Overcast OVC020 16.7 12.2 75% 76.12 1014.7
01 06:52 N 6 12.87 Overcast OVC019 15.6 12.8 84% 76.07 1014.0
01 05:52 Calm 14.48 Overcast OVC019 15.6 12.2 80% 76.05 1013.7
01 04:52 Calm 16.09 Overcast OVC020 15 12.2 15.6 12.8 83% 76.02 1013.3
01 03:52 Calm 16.09 Overcast OVC019 15 12.2 83% 76.02 1013.4
01 02:52 Calm 16.09 Overcast OVC020 15 12.2 83% 76 1013.1
01 01:52 N 6 14.48 Overcast OVC019 15 12.2 83% 76.02 1013.3
01 00:52 Calm 14.48 Overcast OVC020 15 11.7 81% 76.05 1013.8
30 23:52 N 6 14.48 Overcast OVC020 14.4 12.2 87% 76.05 1013.8
30 22:52 Calm 14.48 Mostly Cloudy BKN019 12.8 11.1 18.9 12.2 90% 76.02 1013.4
30 21:52 Calm 16.09 Fair CLR 14.4 11.7 84% 76 1013.2
30 20:52 S 6 16.09 Fair CLR 16.7 12.2 75% 75.97 1012.8
30 19:52 W 6 16.09 Overcast OVC019 17.2 12.2 73% 75.95 1012.3
30 18:52 W 13 14.48 Overcast OVC019 17.2 12.2 73% 75.9 1011.8
30 17:52 W 13 14.48 Overcast OVC020 17.8 12.2 70% 75.9 1011.6
30 16:52 W 15 14.48 Overcast OVC021 18.9 12.8 21.7 18.9 68% 75.87 1011.4
30 15:52 W 22 14.48 Mostly Cloudy BKN020 19.4 12.8 66% 75.9 1011.6
30 14:52 W 22 G 35 14.48 Partly Cloudy SCT019 21.1 13.3 61% 75.9 1011.9
30 13:52 W 20 G 31 14.48 Fair CLR 21.1 12.8 59% 75.9 1011.8
30 12:52 SW 24 16.09 Fair CLR 20.6 12.2 59% 75.92 1012.0
30 11:52 W 19 16.09 Fair CLR 20 12.2 61% 75.95 1012.4
Date Time (pdt) Wind (kph) Vis. (km) Weather Sky Cond. Air Dwpt Max. Min. Relative Humidity Wind Chill (°C) Heat Index (°C) altimeter (cm) sea level (mb) 1 hr 3 hr 6 hr
6 hour
Temperature (ºC) Pressure Precipitation (cm)